Regional Weather Roundup
Issued by NWS Charleston, SC

Current Version | Previous Version | Text Only | Print | Product List | Glossary Off
Versions: 1 2 3 4 5 6 7 8 9 10 11 12 13 14 15 16 17 18 19 20 21 22 23 24 25 26 27 28 29 30 31 32 33 34 35 36 37 38 39 40 41 42 43 44 45 46 47 48 49 50

412
ASUS42 KCHS 301528
RWRCHS

REGIONAL WEATHER ROUNDUP
NATIONAL WEATHER SERVICE CHARLESTON SC
1100 AM EDT MON MAY 30 2016

NOTE: "FAIR" INDICATES FEW OR NO CLOUDS BELOW 12,000 FEET WITH NO
SIGNIFICANT WEATHER AND/OR OBSTRUCTIONS TO VISIBILITY.

NOT ALL STATIONS ARE QUALITY CONTROLLED. USE DATA WITH CAUTION...
ESPECIALLY DEWPOINT OBSERVATIONS.

SCZ027-030-031-034>040-042>050-301600-
...SOUTHEAST SOUTH CAROLINA...

CITY           SKY/WX    TMP DP  RH WIND       PRES   REMARKS
N CHARLESTON   CLOUDY    73  67  81 NW9       29.94S
WATERFRONT PRK   N/A     71  69  93 W7        29.92S
MOUNT PLEASANT PTSUNNY   73  70  88 SW8       29.93F FOG
JOHNS ISLAND   CLOUDY    75  70  83 W10       29.94S
PINOPOLIS        N/A     72  70  94 W12       29.84
MONCKS CORNER  CLOUDY    68  64  88 W5        29.93S FOG
SUMMERVILLE    CLOUDY    70  70 100 W7        29.95S FOG
BEAUFORT MCAS  CLOUDY    77  68  73 NW12      29.95F
BEAUFORT ARPT  PTSUNNY   75  68  78 NW10      29.95S
HILTON HEAD IS MOSUNNY   75  68  78 W7        29.97S
WALTERBORO     CLOUDY    73  73 100 NW8       29.96F
ALLENDALE      PTSUNNY   77  68  73 N7        29.96F

...SOUTHERN MIDLANDS AND PEE DEE...

CITY           SKY/WX    TMP DP  RH WIND       PRES   REMARKS
GEORGETOWN     PTSUNNY   77  68  73 S6        29.92F
KINGSTREE      CLOUDY    73  68  83 NE6       29.92S
ORANGEBURG     LGT RAIN  71  67  87 VRB5      29.96F
BARNWELL       PTSUNNY   79  73  83 NW7       29.98S
AIKEN          CLOUDY    73  64  73 NW7       30.03S
MANNING        CLOUDY    70  68  94 NW5       29.93S
COLUMBIA       PTSUNNY   77  66  68 N7        29.97S
SUMTER         RAIN      72  68  88 N13       29.93S
FLORENCE       CLOUDY    78  70  76 SE8       29.94S
MYRTLE BEACH   PTSUNNY   79  66  65 S14       29.95S
N MYRTLE BEACH PTSUNNY   78  71  79 S9        29.94S

$$

GAZ063-065-086>088-099>101-113>116-118-119-134>141-150-301600-
...SOUTHEAST GEORGIA...

CITY           SKY/WX    TMP DP  RH WIND       PRES   REMARKS
SAVANNAH ARPT  PTSUNNY   80  67  64 NW12      29.97F
HUNTER AAF     MOSUNNY   79  71  76 W9        29.94F
FORT STEWART   CLOUDY    78  65  65 NW10      29.97S
STATESBORO     MOSUNNY   80  71  75 N8        29.99S
SYLVANIA       MOSUNNY   80  70  71 NW7       29.99F
CLAXTON        FAIR      81  69  65 W8        30.00S

...CSRA...CENTRAL AND FAR SOUTHEAST GEORGIA...

CITY           SKY/WX    TMP DP  RH WIND       PRES   REMARKS
THOMSON        MOSUNNY   82  67  61 N12       30.06S
AUGUSTA-BUSH   PTSUNNY   77  66  68 VRB6      30.00S
AUGUSTA-DANIEL PTSUNNY   78  66  66 NW9       30.01S
SWAINSBORO     FAIR      81  64  57 N10       30.01S
VIDALIA        SUNNY     82  64  54 NW9       30.01S
EASTMAN        FAIR      84  64  51 N7        30.05S
HAZLEHURST     FAIR      85  62  45 N6        30.00F
ALMA           SUNNY     83  63  50 VRB3      30.01S
WAYCROSS       SUNNY     84  65  51 NW7       30.00F
JESUP          FAIR      79  61  53 N8        30.00S
BAXLEY         FAIR      86  64  48 N3        30.00S
BRUNSWICK      CLOUDY    88  70  55 W7        29.99F HX  92
SAINT SIMONS   CLOUDY    79  64  60 W8        29.99S

$$

SCZ027-028-034-036>038-045-046-048>050-GAZ119-141-301600-
...LAKE AND SUPPLEMENTAL COASTAL OBSERVATIONS...

STATION/POSITION TIME  TEMP    WIND        PRES    WAVE   SWELL
                       AIR SEA DIR/SP/G            HT/PER HT/PER/DIR
                 (UTC) (F)     (DEG/KT/KT) (MB)    (FT/S) (FT/S/D)
WINYAH BAY       1445   75     190/  6     1012.0S
LAKE MURRAY      1500   76     330/  2/  6 1014.6F
ACE BASIN NERRS  1400   71     320/  4     1015.0R
FORT PULASKI     1500   76 75  280/ 12/ 14 1014.9F
SAPELO ISLAND    1500   75     270/  5     1015.0F

$$

ANZ835-935-AMZ111-154-330-350-352-354-370-450-454-472-301600-
...C-MAN AND BUOY OBSERVATIONS...

STATION/POSITION TIME  TEMP    WIND        PRES    WAVE   SWELL
                       AIR SEA DIR/SP/G            HT/PER HT/PER/DIR
                 (UTC) (F)     (DEG/KT/KT) (MB)    (FT/S) (FT/S/D)
BUOY 41004       1450   73 77  240/ 12/ 14 1013.5R   4/ 8   3/ 8
BUOY 41008       1450   74 76  250/  8/ 10 1015.1F   2/ 8   2/ 90/ 8
FOLLY BEACH CMAN 1500   73     290/  6/ 10 1013.8F
CAPERS NEARSHORE 1508   73 76  260/ 12/ 17 1013.3F
FRIPP NEARSHORE  1508   72 75  290/  6/  8 1013.7F


STATION/POSITION TIME  TEMP    WIND        PRES    WAVE   SWELL
                       AIR SEA DIR/SP/G            HT/PER HT/PER/DIR
                 (UTC) (F)     (DEG/KT/KT) (MB)    (FT/S) (FT/S/D)
5E ST. MARYS GA  1501      79                N/A     2/ 8
FRYING PAN BUOY  1500   78 78  170/ 14/ 16 1014.3F
BUOY 41025       1450   73 80  250/ 10/ 14 1016.7R   6/ 7   5/170/ 7
CAPE LOOKOUT NC  1500   72      90/ 11/ 13 1015.6F
BUOY 41002       1450   73 75  130/ 12/ 14 1016.7R   5/ 8   3/ 80/ 8
BUOY 41010       1420   78 79  200/  8/  8 1016.6F
ST AUGUSTINE FL  1500   84 80  260/  5/  7 1016.8R


$$




USA.gov is the U.S. government's official web portal to all federal, state and local government web resources and services.